Flag for India Weather past 2 weeks in Ahmedabad, Gujarat, India

Now
90 °F

Broken clouds.


Feels Like: 108 °F
Forecast: 80 / 86 °F
Wind: 3 mph from North

Location: Ahmadabad Airport

Current Time: Sep 2, 2014 at 6:45:19 PM

Latest Report: Sep 2, 2014 at 6:10 PM


Visibility: 2 mi

Pressure: N/A

Humidity: 75%

Dew point: 81 °F

Location of AhmedabadLocation

Historic Weather in Ahmedabad — Graph

°F

Ahmedabad temperature yesterday

Maximum temperature yesterday: 91 °F (at 4:40 PM)
Minimum temperature yesterday: 77 °F (at 8:10 PM)
Average temperature yesterday: 81 °F

Past Weeks' High & Low Weather Summary

 TemperatureHumidityPressure
High99 °F (Aug 20, 2:40 PM)100% (Aug 24, 8:10 PM)29.86 "Hg (Aug 24, 8:10 PM)
Low77 °F (Aug 25, 5:40 AM)47% (Aug 29, 4:40 PM)29.42 "Hg (Aug 31, 4:10 PM)
Average87 °F76%29.66 "Hg
* Reported Aug 18 4:40 PM — Sep 2 5:10 PM, Ahmedabad, Weather by CustomWeather, © 2014

Note: Actual official high and low records may vary slightly from our data, if they occured in-between our weather recording intervals... More about our weather records

Advertising

Ahmedabad weather history for previous 24 hours

 ConditionsComfort  
Time TempWeatherWind HumidityBarometerVisibility
5:10 PM
Sep 2
90 °FBroken clouds.6 mph75%N/A2 mi
4:40 PM90 °FBroken clouds.6 mph75%N/A2 mi
4:10 PM90 °FBroken clouds.7 mph75%N/A2 mi
3:40 PM90 °FBroken clouds.5 mph79%N/A2 mi
2:10 PM90 °FFog.5 mph79%N/A2 mi
1:40 PM90 °FFog.6 mph79%N/A2 mi
1:10 PM90 °FFog.6 mph84%N/A2 mi
12:10 PM88 °FFog.5 mph84%29.53 "Hg1 mi
11:40 AM86 °FFog.3 mph89%29.56 "Hg1 mi
10:40 AM84 °FFog.3 mph89%29.56 "Hg1 mi
10:10 AM84 °FFog.5 mph94%29.56 "Hg1 mi
9:40 AM82 °FFog.3 mph100%29.56 "Hg1 mi
9:10 AM82 °FFog.5 mph100%29.53 "Hg1 mi
8:10 AM81 °FFog.3 mph100%29.53 "Hg1 mi
7:40 AM81 °FFog.No wind100%29.53 "Hg1 mi
6:40 AM81 °FFog.No wind89%29.50 "Hg1 mi
5:40 AM81 °FFog.No wind89%29.47 "Hg1 mi
5:10 AM81 °FFog.No wind89%29.47 "Hg1 mi
4:40 AM81 °FFog.No wind89%29.47 "Hg1 mi
3:40 AM79 °FFog.3 mph94%29.47 "Hg2 mi
3:10 AM79 °FFog.3 mph100%29.47 "Hg2 mi
2:40 AM79 °FThunderstorms. Partly cloudy.2 mph100%29.47 "Hg2 mi
1:40 AM79 °FThunderstorms. Partly cloudy.3 mph100%29.50 "Hg2 mi
1:10 AM77 °FPartly cloudy.2 mph100%29.50 "Hg2 mi
12:40 AM77 °FThunderstorms. Partly cloudy.2 mph100%29.53 "Hg2 mi
12:10 AM77 °FLight rain. Partly cloudy.2 mph100%29.53 "Hg2 mi
11:40 PM
Sep 1
77 °FFog.3 mph100%29.53 "Hg2 mi
11:10 PM79 °FFog.3 mph94%29.53 "Hg2 mi
10:40 PM79 °FFog.3 mph100%29.53 "Hg2 mi
9:40 PM79 °FThunderstorms. Mostly cloudy.3 mph100%29.50 "Hg2 mi
9:10 PM79 °FThunderstorms. Passing clouds.No wind100%29.50 "Hg2 mi
8:40 PM77 °FThunderstorms. Passing clouds.2 mph100%29.50 "Hg2 mi
8:10 PM77 °FThunderstorms. Passing clouds.3 mph100%29.47 "Hg2 mi
7:40 PM79 °FThunderstorms. Passing clouds.6 mph94%29.50 "Hg2 mi
6:10 PM90 °FScattered clouds.3 mph79%29.45 "Hg3 mi
Weather by CustomWeather, © 2014

See weather overviewHow to use our weather pages